FW3145 Weather Reports


Display with metric or nautical units.
time (UTC)temp
F
wind
direction
speed
MPH
gust
MPH
rain 1hr
in
rain 24hr
in
rain mn
in
humidity
%
barometer
mb
20260901073003 77 140 0.0 0.0 0.00 0.00 0.00 76 1014.6
20260901071559 76 126 0.0 0.0 0.00 0.00 0.00 78 1014.5
20260901070104 75 129 0.0 0.0 0.00 0.00 0.00 78 1014.6
20260901064551 75 126 0.0 0.0 0.00 0.00 0.00 79 1014.8
20260901063046 74 125 0.0 0.0 0.00 0.00 0.00 80 1014.7
20260901061542 72 124 0.0 0.0 0.00 0.00 0.00 79 1014.6
20260901060038 71 125 0.0 0.0 0.00 0.00 0.00 79 1014.6
20260901054538 71 125 0.0 0.0 0.00 0.00 0.00 78 1014.5
20260901053039 70 340 0.0 0.0 0.00 0.00 0.00 77 1014.4
20260901051536 68 340 0.0 0.0 0.00 0.00 0.00 78 1014.4
20260901050030 68 340 0.0 0.0 0.00 0.00 0.00 79 1014.2
20260901044541 68 37 0.0 0.0 0.00 0.00 0.00 79 1014.0
20260901043026 68 37 0.0 0.0 0.00 0.00 0.00 79 1014.0
20260901041530 68 37 0.0 0.0 0.00 0.00 0.00 80 1013.9
20260901040024 69 37 0.0 0.0 0.00 0.00 0.00 79 1013.9
20260901034531 69 40 0.0 0.0 0.00 0.00 0.00 80 1013.8
20260901033038 69 40 0.0 0.0 0.00 0.00 0.00 80 1013.8
20260901031517 69 40 0.0 0.0 0.00 0.00 0.00 80 1013.9
20260901030025 70 40 0.0 0.0 0.00 0.00 0.00 80 1014.0
20260901024522 70 40 0.0 0.0 0.00 0.00 0.00 80 1014.0
20260901023014 70 40 0.0 0.0 0.00 0.00 0.00 80 1014.0
20260901021518 71 41 0.0 0.0 0.00 0.00 0.00 80 1014.0
20260901020015 71 41 0.0 0.0 0.00 0.00 0.00 79 1014.1
20260901014512 72 41 0.0 0.0 0.00 0.00 0.00 79 1014.0
20260901013012 72 51 0.0 0.0 0.00 0.00 0.00 80 1013.8
20260901011513 71 47 0.0 0.0 0.00 0.00 0.00 80 1013.9
20260901010017 70 20 0.0 0.0 0.00 0.00 0.00 80 1013.9
20260901004510 70 20 0.0 0.0 0.00 0.00 0.00 80 1013.9
20260901003013 70 22 0.0 0.0 0.00 0.00 0.00 80 1013.9
20260901001507 71 22 0.0 0.0 0.00 0.00 0.00 79 1013.8
20260901000013 71 22 0.0 0.0 0.00 0.00 0.00 79 1013.7
20260831234504 71 22 0.0 0.0 0.00 0.00 0.00 79 1013.8
20260831233002 71 24 0.0 0.0 0.00 0.00 0.00 79 1013.9
20260831231602 72 26 0.0 0.0 0.00 0.00 0.00 78 1013.7
20260831224556 73 26 0.0 0.0 0.00 0.00 0.00 77 1013.5
20260831223058 73 26 0.0 0.0 0.00 0.00 0.00 76 1013.6
20260831221603 74 27 0.0 0.0 0.00 0.00 0.00 76 1013.4
20260831220048 74 30 0.0 0.0 0.00 0.00 0.00 76 1013.4
20260831214554 74 30 0.0 0.0 0.00 0.00 0.00 76 1013.3
20260831213047 74 53 0.0 0.0 0.00 0.00 0.00 76 1013.3
20260831211549 74 27 0.0 0.0 0.00 0.00 0.00 76 1013.3
20260831210043 74 355 0.0 0.0 0.00 0.00 0.00 76 1013.2
20260831204544 75 355 0.0 0.0 0.00 0.00 0.00 76 1013.1
20260831203048 75 351 0.0 0.0 0.00 0.00 0.00 76 1013.0
20260831201546 76 350 0.0 0.0 0.00 0.00 0.00 75 1012.9
20260831200041 76 351 0.0 0.0 0.00 0.00 0.00 75 1012.6
20260831194540 77 355 0.0 0.0 0.00 0.00 0.00 73 1012.6
20260831193036 78 31 0.0 0.0 0.00 0.00 0.00 72 1012.6
20260831191535 79 32 0.0 0.0 0.00 0.00 0.00 71 1012.5
20260831190040 79 49 0.0 0.0 0.00 0.00 0.00 72 1012.5
20260831184535 80 97 0.0 0.0 0.00 0.00 0.00 71 1012.3
20260831183033 80 16 0.0 0.0 0.00 0.00 0.00 70 1012.1
20260831181533 81 30 0.0 0.0 0.00 0.00 0.00 69 1012.0
20260831180032 82 28 0.0 0.0 0.00 0.00 0.00 69 1011.9
20260831174532 82 57 0.0 0.0 0.00 0.00 0.00 67 1011.9
20260831173031 83 319 0.0 0.0 0.00 0.00 0.00 67 1011.8
20260831171530 85 271 0.0 0.0 0.00 0.00 0.00 65 1011.8
20260831170030 86 256 0.0 0.0 0.00 0.00 0.00 64 1011.8
20260831164529 86 253 0.0 0.0 0.00 0.00 0.00 61 1011.8
20260831163028 87 270 0.0 0.0 0.00 0.00 0.00 63 1011.8
20260831161528 88 267 0.0 0.0 0.00 0.00 0.00 62 1011.6
20260831160030 88 280 0.0 0.0 0.00 0.00 0.00 63 1011.6
20260831154527 89 269 0.0 0.0 0.00 0.00 0.00 61 1011.5
20260831153025 89 269 0.0 0.0 0.00 0.00 0.00 61 1011.5
20260831151528 89 265 0.0 0.0 0.00 0.00 0.00 60 1011.8
20260831150024 90 217 0.0 0.0 0.00 0.00 0.00 61 1011.8
20260831144523 90 252 0.0 0.0 0.00 0.00 0.00 62 1011.8
20260831143024 90 271 0.0 0.0 0.00 0.00 0.00 61 1011.7
20260831141522 90 263 0.0 0.0 0.00 0.00 0.00 62 1011.7
20260831140026 91 263 0.0 0.0 0.00 0.00 0.00 60 1011.5
20260831134522 92 244 0.0 0.0 0.00 0.00 0.00 61 1011.4
20260831133031 92 275 0.0 0.0 0.00 0.00 0.00 60 1011.3
20260831131518 92 239 0.0 0.0 0.00 0.00 0.00 62 1011.2
20260831130017 91 265 0.0 0.0 0.00 0.00 0.00 60 1011.2
20260831124518 92 171 0.0 0.0 0.00 0.00 0.00 60 1011.3
20260831123013 91 167 0.0 0.0 0.00 0.00 0.00 60 1011.6
20260831121512 92 225 0.0 0.0 0.00 0.00 0.00 59 1011.6
20260831120011 92 194 0.0 0.0 0.00 0.00 0.00 62 1011.8
20260831114508 91 192 0.0 0.0 0.00 0.00 0.00 64 1011.8
20260831113005 91 210 0.0 0.0 0.00 0.00 0.00 60 1011.9
20260831111503 90 228 0.0 0.0 0.00 0.00 0.00 62 1012.0
20260831110002 90 220 0.0 0.0 0.00 0.00 0.00 62 1012.1
20260831104559 89 207 0.0 0.0 0.00 0.00 0.00 66 1012.1
20260831103103 89 93 0.0 0.0 0.00 0.00 0.00 68 1012.3
20260831101557 88 179 0.0 0.0 0.00 0.00 0.00 68 1012.4
20260831100052 88 77 0.0 0.0 0.00 0.00 0.00 68 1012.6
20260831094549 87 184 0.0 0.0 0.00 0.00 0.00 71 1012.6
20260831093047 86 85 0.0 0.0 0.00 0.00 0.00 71 1012.5
20260831091556 85 54 0.0 0.0 0.00 0.00 0.00 74 1012.6
20260831090041 84 105 0.0 0.0 0.00 0.00 0.00 75 1012.7
20260831084540 84 157 0.0 0.0 0.00 0.00 0.00 75 1012.5
20260831083036 84 174 0.0 0.0 0.00 0.00 0.00 77 1012.2
20260831081538 83 165 0.0 0.0 0.00 0.00 0.00 78 1012.1
20260831080054 82 139 0.0 0.0 0.00 0.00 0.00 78 1012.1
20260831074527 81 173 0.0 0.0 0.00 0.00 0.00 78 1012.1